Погода в Буденновске

Погода в Буденновске : погода сейчас, прогноз погоды и архив. Всё, что Вы хотите узнать о погоде в Буденновске!

Хотите узнать прогноз погоды в Буденновске? Тогда Вам сюда: Погода в Буденновске

Поиск расширенной информации на нашем сайте:

Другие новости

Новости СМИ2

Главная страница сайта

Новости сайта

03.07.2017

Напоминаем, что на нашем специализированном сайте Метеоцентр.Азия вы можете получить высокодетализированные автоматические прогнозы погоды по пунктам России, СНГ и мира в авиационном формате (включающие направление и скорость ветра, видимость, явления погоды, количество и форму облачности, нижнюю и верхнюю границу облачности).


Погода в Буденновске - сегодня

Время (UTC), дата Ветер
(°,м/с) 
Видим.   Явления Облачность Т
(°С)
Тd
(°С)
f(%) Тe
(°С)
Pmin
(гПа)
dP
(гПа)
Po
(мм)
O2
(г/м3)
Тmin Tmax R s Состояние
почвы
15 13.01.18 030 (СВ) 10 км    10/10 600 м 
[Sc]
-6.9 -8.9 86 -8  1035.1  0.4  763  316    -6.3       
18 13.01.18 060 (СВ) 4000 м  слаб. ливневой снег  10/10 600 м кучево-дожд. 
[Cb calv]
-6.9 -8 92 -10  1035.1  763  316           
21 13.01.18 070 (В) 4000 м  слаб. ливневой снег  10/10 600 м кучево-дожд. 
[Cb calv]
-7.7 -9.1 90 -10  1034.6  -0.6  763  317           
00 14.01.18 070 (В) 4000 м  дымка{ливн. осадки}  10/10 600 м кучево-дожд. 
[Cb calv]
-7.7 -8.8 92 -11  1034  -0.6  762  317           
03 14.01.18 070 (В) 4000 м  дымка  10/10 600 м 
[Sc]
-7.7 -8.8 92 -11  1033.5  -0.4  762  317  -7.8       
06 14.01.18 060 (СВ) 4000 м  слаб. ливневой снег  10/10 600 м кучево-дожд. 
[Cb calv]
-8.1 -9.5 90 -12  1034.1  0.5  762  318  -8.2         
09 14.01.18 070 (В) 5{11}  10 км  в посл. час ливневой снег  10/10 600 м кучево-дожд. 
[Cb calv]
-7.8 -10.1 84 -12  1032.9  -1.2  761  317           
12 14.01.18 060 (СВ) 5-11{11}  10 км  {ливн. осадки}  10/10 300 м 
[Sc]
-6.8 -8.8 86 -11  1031.9  -0.9  761  315           
15 14.01.18 060 (СВ) 4000 м  слаб. ливневой снег  10/10 600 м кучево-дожд. 
[Cb calv]
-7.6 -9.3 88 -12  1032.6  0.6  761  316    -6.7  0.2     
18 14.01.18 080 (В) 6-11{11}  4000 м  слаб. ливневой снег  10/10 600 м кучево-дожд. 
[Cb calv]
-8.5 -10.1 88 -14  1032.8  0.2  761  318           
21 14.01.18 090 (В) 4{11}  4000 м  слаб. ливневой снег  10/10 600 м кучево-дожд. 
[Cb calv]
-9.2 -10.2 92 -13  1032.6  -0.2  761  318           
00 15.01.18 070 (В) 6-10{10}  4000 м  слаб. ливневой снег  10/10 600 м кучево-дожд. 
[Cb calv]
-8.8 -9.7 93 -14  1032.1  -0.5  761  318           
03 15.01.18 070 (В) 4000 м  дымка{ливн. осадки}  10/10 300 м 
[Sc]
-8.1 -9 93 -12  1032.6  0.5  761  317  -9.3    0.2     
06 15.01.18 080 (В) 4{10}  4000 м  снежные зёрна{ливн. осадки}  10/10 300 м 
[St]
-6.4 -7.2 94 -10  1033  0.5  761  315           
09 15.01.18 080 (В) 4000 м  дымка{снег}  10/10 300 м 
[Sc]
-5 -5.8 94 -8  1032.7  0.1  761  313           
12 15.01.18 080 (В) 4000 м  снежные зёрна  10/10 300 м 
[St]
-3.2 -5 87 -6  1032.5  -0.1  761  311           
15 15.01.18 070 (В) 4000 м  дымка{снег}  10/10 600 м 
[Sc]
-3.7 -4.9 91 -7  1033.6  762  312    -3.1  0.0     
18 15.01.18 070 (В) 5{10}  4000 м  слаб. ливневой снег  10/10 600 м кучево-дожд. 
[Cb calv]
-4.9 -5.7 94 -9  1034.2  0.5  762  313           
21 15.01.18 070 (В) 4000 м  в посл. час ливневой снег  10/10 600 м кучево-дожд. 
[Cb calv]
-5.9 -6.8 93 -9  1034.1  -0.2  762  315           
00 16.01.18 070 (В) 4000 м  слаб. ливневой снег  10/10 600 м кучево-дожд. 
[Cb calv]
-6.4 -7.3 93 -10  1034.1  762  315           
03 16.01.18 070 (В) 4000 м  слаб. ливневой снег  10/10 600 м кучево-дожд. 
[Cb calv]
-6.4 -7.6 91 -9  1033.3  -0.9  762  315  -6.6    0.2     
06 16.01.18 080 (В) 4000 м  слаб. крупа{ливн. осадки, морось} [диам. гололёда 1 мм]  10/10 600 м кучево-дожд. 
[Cb calv]
-6 -6.9 93 -9  1033  0.1  762  315           
09 16.01.18 080 (В) 4000 м  слаб. крупа{ливн. осадки} [диам. гололёда 1 мм]  10/10 600 м кучево-дожд. 
[Cb calv]
-3.5 -5.3 87 -6  1031.4  -1.4  761  311           
12 16.01.18 090 (В) 4000 м  слаб. ливневой снег  10/10 600 м кучево-дожд. 
[Cb calv]
-2.8 -4.7 87 -5  1029.6  -1.7  759  310           
15 16.01.18 090 (В) 4000 м  в посл. час ливневой снег  10/10 600 м кучево-дожд. 
[Cb calv]
-3.6 -5.3 88 -7  1028.5  -1.7  758  310    -2.8  0.8     
Время (UTC), дата Ветер
(°,м/с) 
Видим.   Явления Облачность Т
(°С)
Тd
(°С)
f(%) Тe
(°С)
Pmin
(гПа)
dP
(гПа)
Po
(мм)
O2
(г/м3)
Тmin Tmax R s Состояние
почвы

Для получения пояснительной информации подведите курсор к названию столбца.

ПОГОДА в Буденновске - архив

Всё, что Вы хотите узнать о погоде в Буденновске - удобно и подробно!

Выберите нужную дату (начиная с 1 января 2015* года) и нажмите кнопку "Найти".
Будут отображены архивные сводки погоды по пункту Буденновск, начиная с указанной даты.


Отображать данные в формате CSV (для использования в таблицах Excel)


Внимание! Наш архив погоды предназначен исключительно для личного некоммерческого использования в познавательных целях. Если Вам необходимы официальные справки о состоянии погоды (для производственных, юридических, коммерческих и т.п. целей), обращайтесь в органы Росгидромета.

*Примечание: данная дата относится к архиву по метеостанциям СССР (Россия, СНГ, Балтия).
Архив по метеостанциям Зарубежной Европы и Азии (кроме Китая) хранится 10 дней, по другим регионам земного шара (Китай, Африка, Америка, Австралия, Океания) - 1 день.

Буденновск - район местоположения метеостанции


Название, широта, долгота, высота метеостанции:
Буденновск (Прикумск) 44.8°ш. 44.1°д. 136 м над ур. моря [Российская Федерация]

Дополнительная информация

В oтличие oт бoльшинства пoгoдных сайтoв мы публикуем пoдрoбную метеoинфoрмацию в детальнoм прoфессиoнальнoм фoрмате.

Характеристики температуры и влажнoсти вoздуха измеряются на высoте 2 м в тени вдали oт зданий и деревьев.
Скoрoсть ветра измеряется на высoте 10 м (на урoвне рoста челoвека скoрoсть ветра ниже в 1.5-2 раза). Если метеoстанция нахoдится в гoрoде или в лесу, тo скoрoсть ветра занижена на 2-4 м/с пo сравнению с oткрытым местoм. Скoрoсть ветра над акватoриями крупных рек и oзёр, а также на вершинах хoлмoв на 2-5 м/с выше, чем в oбычных услoвиях.
Атмoсфернoе давление в разных тoчках местнoсти мoжет значительнo oтличаться oт давления на метеoстанции, в зависимoсти oт услoвий рельефа (при пoдъёме на 10 м давление пoнижается примернo на 1 мм рт.ст.).